+ View the NASA Portal
+ Center for Near-Earth Object Studies
IMPORTANT:
The SSD Announcement email list is now available. Major changes are coming in the near future, including possible hostname and/or URL changes. To be notified of such changes, subscribe to this email list.
Please visit
this page
for more details.
Don't show this message again
JPL Small-Body Database Browser
Search:
[
help
]
249839 (2001 PB10)
Classification:
Main-belt Asteroid
SPK-ID:
2249839
[
Ephemeris
|
Orbit Diagram
|
Orbital Elements
|
Mission Design
|
Physical Parameters
|
Discovery Circumstances
]
[ show orbit diagram ]
Orbital Elements at Epoch 2458600.5 (2019-Apr-27.0) TDB
Reference:
JPL 15
(heliocentric ecliptic J2000)
Element
Value
Uncertainty (1-sigma)
Units
e
.1800434431738909
6.172e-08
a
2.629930375163985
2.3029e-08
au
q
2.156428655111859
1.7011e-07
au
i
11.19764139407994
7.0514e-06
deg
node
131.7946688252851
2.9114e-05
deg
peri
249.5064926080359
3.5079e-05
deg
M
6.926965404707194
2.0231e-05
deg
t
p
2458570.525267129611
(2019-Mar-28.02526713)
8.7355e-05
TDB
period
1557.811134152229
4.27
2.0462e-05
5.602e-08
d
yr
n
.2310934824560195
3.0354e-09
deg/d
Q
3.103432095216112
2.7175e-08
au
Orbit Determination Parameters
# obs. used (total)
253
data-arc span
7234 days (19.81 yr)
first obs. used
1999-01-19
last obs. used
2018-11-09
planetary ephem.
DE431
SB-pert. ephem.
SB431-N16
condition code
0
norm. resid. RMS
.64302
source
ORB
producer
Otto Matic
solution date
2019-Jul-13 14:52:15
Additional Information
Earth MOID
= 1.18666 au
Jupiter MOID
= 2.44053 au
T_jup
= 3.351
[ show covariance matrix ]
[
Ephemeris
|
Orbit Diagram
|
Orbital Elements
|
Mission Design
|
Physical Parameters
|
Discovery Circumstances
]
Physical Parameter Table
Parameter
Symbol
Value
Units
Sigma
Reference
Notes
absolute magnitude
H
16.0
n/a
MPO450108
249839 (2001 PB10)
Discovered 2001-Aug-08 by NEAT at Haleakala
Reference:
20100923/Numbers.arc
Last Updated:
2010-09-27
Alternate Designations
2001 PB10
= 2006 XU63
[
Ephemeris
|
Orbit Diagram
|
Orbital Elements
|
Mission Design
|
Physical Parameters
|
Discovery Circumstances
]
2019-Dec-10 05:31 UT
(server date/time)
Site Manager:
Ryan S. Park
Webmaster
:
Alan B. Chamberlin